Weather History for KIMT - August, 2013

Change the Weather History Date:

Sunday, August 11, 2013

  Actual Average Record
Temperature  
Mean Temperature 62 °F -  
Max Temperature 77 °F 77 °F 93 °F (1944)
Min Temperature 46 °F 51 °F 35 °F (1967)
Degree Days  
Heating Degree Days 4    
Growing Degree Days 12 (Base 50)    
Moisture  
Dew Point 51 °F    
Average Humidity 74    
Maximum Humidity 94    
Minimum Humidity 42    
Precipitation  
Precipitation 0.00 in - - ()
Sea Level Pressure  
Sea Level Pressure 30.07 in    
Wind  
Wind Speed 1 mph (West)    
Max Wind Speed 7 mph    
Max Gust Speed -    
Visibility 8 miles    
Events      
Averages and records for this station are not official NWS values.
T = Trace of Precipitation, MM = Missing Value Source: NWS Daily Summary

Daily Weather History Graph

Daily Weather History Graph

Search for Another Location

Airport or City:

Trip Planner

Search our weather history database for the weather conditions in past years. The results will help you decide how hot, cold, wet, or windy it might be!

Date:

Astronomy

Aug. 11, 2013 Rise Set
Actual Time 5:47 AM CDT 8:06 PM CDT
Civil Twilight 5:14 AM CDT 8:39 PM CDT
Nautical Twilight 4:33 AM CDT 9:20 PM CDT
Astronomical Twilight 3:47 AM CDT 10:06 PM CDT
Moon 10:54 AM CDT (8/11) 10:01 PM CDT (8/11)
Length of Visible Light 15h 24m
Length of Day
14h 18m
Waxing Crescent, 22% of the Moon is Illuminated
Aug 11
Waxing Crescent
Aug 14
First Quarter
Aug 20
Full
Aug 28
Last Quarter
Sep 5
New

Hourly Weather History & Observations

Time (CDT) Temp. Dew Point Humidity Pressure Visibility Wind Dir Wind Speed Gust Speed Precip Events Conditions
12:54 AM 51.1 °F 48.0 °F 89% 30.11 in 6.0 mi Calm Calm - N/A   Clear
1:01 AM 51.8 °F 48.2 °F 88% 30.10 in 2.5 mi Calm Calm - N/A   Partly Cloudy
1:09 AM 51.8 °F 50.0 °F 94% 30.10 in 3.0 mi Calm Calm - N/A   Partly Cloudy
1:54 AM 51.1 °F 48.9 °F 92% 30.11 in 2.0 mi Calm Calm - N/A   Clear
2:06 AM 51.8 °F 46.4 °F 82% 30.10 in 10.0 mi Calm Calm - N/A   Clear
2:37 AM 50.0 °F 48.2 °F 94% 30.11 in 1.8 mi Calm Calm - N/A   Clear
2:49 AM 50.0 °F 48.2 °F 94% 30.11 in 2.5 mi Calm Calm - N/A   Partly Cloudy
2:54 AM 50.0 °F 46.9 °F 89% 30.11 in 2.5 mi Calm Calm - N/A   Partly Cloudy
3:01 AM 48.2 °F 46.4 °F 93% 30.11 in 10.0 mi Calm Calm - N/A   Clear
3:54 AM 48.0 °F 45.0 °F 89% 30.11 in 10.0 mi Calm Calm - N/A   Clear
4:03 AM 48.2 °F 44.6 °F 87% 30.10 in 1.5 mi Calm Calm - N/A   Clear
4:14 AM 48.2 °F 46.4 °F 93% 30.10 in 3.0 mi Calm Calm - N/A   Clear
4:54 AM 46.9 °F 44.1 °F 90% 30.11 in 10.0 mi Calm Calm - N/A   Clear
5:54 AM 48.9 °F 46.9 °F 93% 30.10 in 10.0 mi Calm Calm - N/A   Clear
6:54 AM 54.0 °F 50.0 °F 86% 30.10 in 10.0 mi Calm Calm - N/A   Clear
7:54 AM 57.9 °F 52.0 °F 81% 30.10 in 10.0 mi Calm Calm - N/A   Clear
8:54 AM 63.0 °F 53.1 °F 70% 30.10 in 10.0 mi WNW 3.5 mph - N/A   Clear
9:54 AM 66.9 °F 55.0 °F 66% 30.09 in 10.0 mi Calm Calm - N/A   Clear
10:54 AM 72.0 °F 54.0 °F 53% 30.08 in 10.0 mi NNW 5.8 mph - N/A   Clear
11:54 AM 73.0 °F 52.0 °F 48% 30.08 in 10.0 mi Calm Calm - N/A   Scattered Clouds
12:54 PM 73.0 °F 51.1 °F 46% 30.07 in 10.0 mi Calm Calm - N/A   Scattered Clouds
1:54 PM 75.0 °F 52.0 °F 44% 30.05 in 10.0 mi NW 6.9 mph - N/A   Scattered Clouds
2:54 PM 73.9 °F 50.0 °F 43% 30.04 in 10.0 mi Variable 4.6 mph - N/A   Scattered Clouds
3:54 PM 75.9 °F 51.1 °F 42% 30.03 in 10.0 mi SW 3.5 mph - N/A   Scattered Clouds
4:54 PM 77.0 °F 52.0 °F 42% 30.02 in 10.0 mi SW 5.8 mph - N/A   Clear
5:54 PM 73.9 °F 51.1 °F 45% 30.01 in 10.0 mi SSW 3.5 mph - N/A   Scattered Clouds
6:54 PM 72.0 °F 53.1 °F 51% 30.01 in 10.0 mi WSW 3.5 mph - N/A   Overcast
7:54 PM 70.0 °F 57.9 °F 65% 30.00 in 10.0 mi Calm Calm - N/A   Overcast
8:54 PM 68.0 °F 57.0 °F 68% 30.01 in 10.0 mi Calm Calm - N/A   Overcast
9:54 PM 61.0 °F 55.9 °F 83% 30.02 in 10.0 mi Calm Calm - N/A   Mostly Cloudy
10:54 PM 59.0 °F 55.9 °F 90% 30.01 in 10.0 mi Calm Calm - N/A   Clear
11:54 PM 57.0 °F 55.0 °F 93% 30.01 in 10.0 mi Calm Calm - N/A   Clear